CZ-6A DEB, 54301

Orbit data source: Space-Track

CZ-6A DEB, 54301 is space debris in SSO originally from a launch on Fri, 11 Nov 2022 UTC launched from the Taiyaun Space Center, China (TSC). Debris objects in space refer to the collection of defunct objects orbiting the Earth. Examples of debris include non-operational satellites, rocket bodies, and fragments generated from explosions, collisions, or faulty payload assembly.

Loading next visibility...
Identifier
54301, 2022-151AU
Orbit
SSO
Country
Flag of CNCN / PRC
Related business
Manufacturer
SAST
Mission
Spacecraft
Bus & Motor
Unknown
Mass
Unknown
Launch date (UTC)
2022-11-11 (3 years ago)
Launch vehicle
Unknown
Launch site
Taiyaun Space Center, China (TSC)
Object type
Payload
Rocket body
Debris
Shape & HBR
Unknown shape, 0.1 m
Radar Cross Section
Small (<0.1 m²)

Expand to show TLE details & history
Last TLE update: 1 day ago

TLE from 1 day ago
0 CZ-6A DEB
1 54301U 22151AU  25349.74496105  .00001092  00000-0  62715-3 0  9999
2 54301  98.8964 357.0849 0054058 116.4949 244.1780 14.10687895158516
Epoch: 2025-12-15T17:52Z
TLE epoch observation values (Epoch: 2025-12-15T17:52:44.634Z)
Latitude
-0.00001°
Longitude
4.2598°
Altitude
877.125 km
Speed
7.405 km/s
True Right ascension
23h 48m 20s
True Declination
0° 00' 00"
Sunlit
Object was in daylight at epoch
Visualization orbit readout
Latitude
Unknown
Longitude
Unknown
Altitude
Unknown
Speed
Unknown
Apparent Right ascension
Unknown
Apparent Declination
Unknown
Sunlit
N/A
Visualization observer readout
Local Sidereal Time
19:41:21
Azimuth
Unknown
Elevation
Unknown
Doppler factor
Unknown
Orbital elements
Apogee altitude
893.295 km
Perigee altitude
815.102 km
Semi-major axis
7,232.336 km
Eccentricity
0.00541
Inclination
98.8964°
RAAN
357.0849°
Arg. of periapsis
116.4949°
True anomaly
243.62204°
Mean anomaly
244.178°
Eccentric anomaly
243.89985°
Mean motion
3.52879 °/min
Orbital period
102.02 mins
BSTAR
0.00062715
Loading maneuver chart data...
Computing Atmospheric mass density...
Loading historical data...
Loading historical data...
Loading historical data...
Loading historical data...
Loading historical data...
Loading historical data...
Loading historical data...

Documentation

Showing up to 5 results
|